Regional Weather Roundup
Issued by NWS Boston, MA

Home | Current Version | Previous Version | Text Only | Print | Product List | Glossary On
Versions: 1 2 3 4 5 6 7 8 9 10 11 12 13 14 15 16 17 18 19 20 21 22 23 24 25 26 27 28 29 30 31 32 33 34 35 36 37 38 39 40 41 42 43 44 45 46 47 48 49 50
244
ASUS41 KBOX 190410
RWRBOX

REGIONAL WEATHER ROUNDUP
NATIONAL WEATHER SERVICE TAUNTON MA
1200 AM EDT SAT AUG 19 2017

NOTE:  "FAIR" INDICATES FEW OR NO CLOUDS BELOW 12,000 FEET WITH NO
SIGNIFICANT WEATHER AND/OR OBSTRUCTIONS TO VISIBILITY.

MAZALL-190500-
EASTERN MASSACHUSETTS

CITY           SKY/WX    TMP DP  RH WIND       PRES   REMARKS
BOSTON         CLOUDY    74  73  97 S8        29.81R FOG
BEVERLY        CLOUDY    75  74  96 S6        29.80S
LAWRENCE       CLOUDY    77  74  90 SW3       29.82S
BEDFORD        CLOUDY    75  72  90 S6        29.79S
BLUE HILL        N/A     73  72  96 S15       29.82R
NORWOOD        CLOUDY    77  75  93 S7        29.80R FOG
MARSHFIELD     CLOUDY    75  75 100 SW8       29.80F
PLYMOUTH       LGT RAIN  73  71  93 SW12      29.82F FOG
TAUNTON        CLOUDY    74  72  93 S7        29.80F
NEW BEDFORD    HVY RAIN  74  72  93 SW12G21   29.80F FOG
$$

MAZALL-190500-
CAPE COD AND THE ISLANDS

CITY           SKY/WX    TMP DP  RH WIND       PRES   REMARKS
FALMOUTH         N/A    N/A N/A N/A MISG        N/A
HYANNIS        RAIN      74  72  93 S15G24    29.81F FOG
CHATHAM        HVY RAIN  69  69 100 S10G17    29.85F FOG
PROVINCETOWN   CLOUDY    72  72 100 S14       29.83F FOG
NANTUCKET      LGT RAIN  72  71  97 S23G30    29.85F
MARTHAS VNYRD  TSTM      74  71  91 S20G30    29.81F FOG
$$

MAZALL-190500-
CENTRAL AND WESTERN MASSACHUSETTS

CITY           SKY/WX    TMP DP  RH WIND       PRES   REMARKS
WORCESTER      CLOUDY    74  72  93 SW9       29.83F
FITCHBURG      MOCLDY    76  74  93 CALM      29.81R
ORANGE         MOCLDY    74  74 100 CALM      29.80F
SPRINGFIELD    CLOUDY    77  73  88 S7        29.77F
WESTFIELD      MOCLDY    75  74  96 W5        29.79F
NORTH ADAMS    MOCLDY    70  69  97 CALM      29.79F FOG
PITTSFIELD     MOCLDY    71  69  93 NW3       29.82F FOG
$$

RIZALL-190500-
RHODE ISLAND

CITY           SKY/WX    TMP DP  RH WIND       PRES   REMARKS
PROVIDENCE     LGT RAIN  76  76 100 SW9       29.81F FOG
NEWPORT        LGT RAIN  73  73 100 S7        29.81F FOG
BLOCK ISLAND   LGT RAIN  73  72  96 MISG        N/A
WESTERLY       NOT AVBL
$$

CTZALL-190500-
CONNECTICUT

CITY           SKY/WX    TMP DP  RH WIND       PRES   REMARKS
BRADLEY INTL   MOCLDY    76  76 100 S7        29.78F
HARTFORD       CLOUDY    77  76  96 S3        29.77F
BRIDGEPORT     FAIR      75  72  90 SW6       29.80S
DANBURY        CLOUDY    74  71  91 SW5       29.83S
GROTON         CLOUDY    73  72  96 SW12      29.80F FOG
NEW HAVEN      FAIR      75  73  93 SW7       29.80S
CHESTER        CLOUDY    75  75 100 SW5G14    29.81F
MERIDEN        FAIR      75  74  96 S5        29.79S
WILLIMANTIC    CLOUDY    76  76 100 S5        29.80F
OXFORD         LGT RAIN  73  73 100 W5        29.83S
$$

MEZ002-015-021-024-NHZ003-005-008-011-012-014-VTZ005-008-190500-
NORTHERN NEW ENGLAND

CITY           SKY/WX    TMP DP  RH WIND       PRES   REMARKS
PORTLAND ME    CLOUDY    62  61  96 NW9       29.82S FOG
BANGOR ME      LGT RAIN  60  58  92 E8        29.90F FOG
CONCORD NH     CLOUDY    64  62  93 N3        29.83R
MANCHESTER NH  CLOUDY    66  62  87 N6        29.80S
NASHUA NH      CLOUDY    66  66 100 NW3       29.82S
PORTSMOUTH NH  CLOUDY    65  64  97 NW9       29.81R FOG
JAFFREY NH     CLOUDY    65  65 100 CALM      29.85S FOG
KEENE NH         N/A    N/A N/A N/A MISG        N/A
BURLINGTON VT  LGT RAIN  73  69  87 W3        29.76S
MT. WASHINGTON FOG       54  54 100 W26         N/A  VSB 0
$$

NYZ052-076-190500-
EASTERN NEW YORK

CITY           SKY/WX    TMP DP  RH WIND       PRES   REMARKS
ALBANY         CLOUDY    74  71  91 W15       29.80R
NEW YORK CITY  LGT RAIN  76  72  87 SW9       29.80S
$$

ANZALL-190500-
MARINE OBSERVATIONS

STATION/POSITION TIME  TEMP    WIND        PRES    VSBY  WAVE
                       AIR SEA DIR/SP/G                  HT/PER
                 (UTC) (F)     (DEG/KT/KT) (MB)    (MI)  (FT/S)
BOSTON BUOY      0350   69 67  170/ 10/ 10 1009.3R         2/ 4
BUZZARDS BAY     0300   72     190/ 25/ 26 1009.9S
NANTUCKET SOUND  0350   72 71  180/ 25/ 31 1009.6F         3/ 4
MASS BAY-STELLWA 0304   69 66  160/ 14/ 16 1008.4F         3/ 5
ISLE OF SHOALS   0300   70     180/ 17/ 17 1008.9S
S OF BLOCK IS    NOT AVBL
$$

......................KEY.........................
  SKY/WX - SKY CONDITION/PRESENT WEATHER
  TMP    - TEMPERATURE IN FAHRENHEIT
  DWPT   - DEWPOINT IN FAHRENHEIT
  RH     - RELATIVE HUMIDITY IN PERCENT
  WIND   - DIRECTION AND SPEED IN MPH
  PRES   - MEAN SEA LEVEL PRESSURE IN INCHES OF HG
  WCI    - WIND CHILL INDEX
  VSB    - VISIBILITY IN MILES
  HX     - HEAT INDEX
  TC     - TEMPERATURE IN CELSIUS
  VRB    - VARIABLE WIND DIRECTION
  N/A    - NOT AVAILABLE




USA.gov is the U.S. government's official web portal to all federal, state and local government web resources and services.